Regional Weather Roundup
Issued by NWS Boston, MA

Current Version | Previous Version | Text Only | Print | Product List | Glossary Off
Versions: 1 2 3 4 5 6 7 8 9 10 11 12 13 14 15 16 17 18 19 20 21 22 23 24 25 26 27 28 29 30 31 32 33 34 35 36 37 38 39 40 41 42 43 44 45 46 47 48 49 50
699 ASUS41 KBOX 110810 RWRBOX REGIONAL WEATHER ROUNDUP NATIONAL WEATHER SERVICE BOSTON/NORTON MA 300 AM EST TUE DEC 11 2018 NOTE: "FAIR" INDICATES FEW OR NO CLOUDS BELOW 12,000 FEET WITH NO SIGNIFICANT WEATHER AND/OR OBSTRUCTIONS TO VISIBILITY. MAZALL-110900- EASTERN MASSACHUSETTS CITY SKY/WX TMP DP RH WIND PRES REMARKS BOSTON FAIR 25 10 53 NW7 30.20 WCI 17 BEVERLY FAIR 20 8 60 NW5 30.18S WCI 13 LAWRENCE FAIR 21 10 62 CALM 30.21S BEDFORD FAIR 15 11 83 CALM 30.18F BLUE HILL N/A 20 10 65 NW9 30.14S WCI 9 NORWOOD FAIR 18 13 80 CALM 30.20S MARSHFIELD FAIR 23 16 74 W3 30.18F PLYMOUTH FAIR 22 12 65 CALM 30.18S TAUNTON FAIR 13 9 84 CALM 30.18S NEW BEDFORD FAIR 18 15 88 CALM 30.18S $$ MAZALL-110900- CAPE COD AND THE ISLANDS CITY SKY/WX TMP DP RH WIND PRES REMARKS FALMOUTH FAIR 21 14 73 NW5 30.18F WCI 15 HYANNIS FAIR 24 18 77 CALM 30.16S CHATHAM MOCLDY 29 22 75 CALM 30.17S PROVINCETOWN CLOUDY 32 24 72 E6 30.18S WCI 26 NANTUCKET MOCLDY 29 22 75 N5 30.16S WCI 24 MARTHAS VNYRD FAIR 16 13 88 N3 30.17S $$ MAZALL-110900- CENTRAL AND WESTERN MASSACHUSETTS CITY SKY/WX TMP DP RH WIND PRES REMARKS WORCESTER FAIR 17 9 70 CALM 30.13S FITCHBURG FAIR 13 10 88 NW3 30.19S ORANGE FAIR 11 7 84 CALM 30.18F SPRINGFIELD FAIR 13 9 86 CALM 30.17F WESTFIELD NOT AVBL NORTH ADAMS FAIR 12 10 92 CALM 30.17S PITTSFIELD FAIR 13 9 84 CALM 30.11S $$ RIZALL-110900- RHODE ISLAND CITY SKY/WX TMP DP RH WIND PRES REMARKS PROVIDENCE FAIR 22 15 75 NW3 30.20S NEWPORT FAIR 23 14 68 NW3 30.18S BLOCK ISLAND FAIR 30 20 66 NE7 30.18S WCI 23 SMITHFIELD FAIR 17 11 77 N5 30.16F WCI 10 WESTERLY FAIR 19 16 88 CALM 30.20R $$ CTZALL-110900- CONNECTICUT CITY SKY/WX TMP DP RH WIND PRES REMARKS BRADLEY INTL FAIR 16 13 88 CALM 30.19S HARTFORD FAIR 20 16 84 CALM 30.21R BRIDGEPORT FAIR 26 17 68 N7 30.20S WCI 18 DANBURY FAIR 17 13 84 CALM 30.19S GROTON FAIR 20 17 88 N5 30.19S WCI 13 NEW HAVEN NOT AVBL CHESTER FAIR 23 14 68 CALM 30.17F MERIDEN FAIR 17 14 88 CALM 30.20S WILLIMANTIC FAIR 15 12 88 CALM 30.20R OXFORD FAIR 20 16 84 CALM 30.16S $$ MEZ002-015-021-024-NHZ003-005-008-011-012-014-VTZ005-008-110900- NORTHERN NEW ENGLAND CITY SKY/WX TMP DP RH WIND PRES REMARKS PORTLAND ME FAIR 13 6 74 N5 30.21S WCI 5 BANGOR ME FAIR 7 3 84 W3 30.19R CONCORD NH FAIR 7 4 87 CALM 30.19R MANCHESTER NH FAIR 16 10 77 CALM 30.18S NASHUA NH FAIR 14 12 92 NW5 30.20S WCI 6 PORTSMOUTH NH CLEAR 15 7 70 N5 30.18S WCI 8 JAFFREY NH FAIR 9 7 92 CALM 30.12F KEENE NH FAIR 9 7 92 CALM 30.19S BURLINGTON VT FAIR 8 2 76 CALM 30.20R MT. WASHINGTON PTCLDY 12 -15 29 W29 N/A WCI -9 $$ NYZ052-076-110900- EASTERN NEW YORK CITY SKY/WX TMP DP RH WIND PRES REMARKS ALBANY FAIR 16 10 77 CALM 30.20S NEW YORK CITY FAIR 31 17 56 N6 30.20S WCI 25 $$ ANZALL-110900- MARINE OBSERVATIONS STATION/POSITION TIME TEMP WIND PRES VSBY WAVE AIR SEA DIR/SP/G HT/PER (UTC) (F) (DEG/KT/KT) (MB) (MI) (FT/S) BOSTON BUOY 0750 31 45 320/ 10/ 12 1021.6R 2/ 5 BUZZARDS BAY 0700 30 360/ 12/ 13 1022.5R NANTUCKET SOUND 0750 33 39 330/ 10/ 12 1021.7 1/ 2 MASS BAY-STELLWA 0704 32 44 40/ 8/ 12 1020.8R 1 7/8 2/ 5 ISLE OF SHOALS 0700 28 80/ 7/ 8 1022.0R S OF BLOCK IS 0743 50 N/A 3/10 $$ ......................KEY......................... SKY/WX - SKY CONDITION/PRESENT WEATHER TMP - TEMPERATURE IN FAHRENHEIT DWPT - DEWPOINT IN FAHRENHEIT RH - RELATIVE HUMIDITY IN PERCENT WIND - DIRECTION AND SPEED IN MPH PRES - MEAN SEA LEVEL PRESSURE IN INCHES OF HG WCI - WIND CHILL INDEX VSB - VISIBILITY IN MILES HX - HEAT INDEX TC - TEMPERATURE IN CELSIUS VRB - VARIABLE WIND DIRECTION N/A - NOT AVAILABLE

USA.gov is the U.S. government's official web portal to all federal, state and local government web resources and services.